TimeMDT,TemperatureF,Dew PointF,Humidity,Sea Level PressureIn,VisibilityMPH,Wind Direction,Wind SpeedMPH,Gust SpeedMPH,PrecipitationIn,Events,Conditions,WindDirDegrees,DateUTC
12:52 AM,54.0,52.0,93,29.42,10.0,WNW,9.2,-,0.03,,Mostly Cloudy,300,2013-05-30 06:52:00
1:52 AM,53.1,51.1,93,29.38,10.0,NNW,9.2,-,N/A,,Clear,340,2013-05-30 07:52:00
2:52 AM,53.1,51.1,93,29.37,10.0,NNE,9.2,-,N/A,,Clear,20,2013-05-30 08:52:00
3:52 AM,53.1,51.1,93,29.40,10.0,Variable,6.9,-,N/A,,Overcast,0,2013-05-30 09:52:00
4:28 AM,53.6,51.8,94,29.45,7.0,West,3.5,-,0.01,Rain,Light Rain,260,2013-05-30 10:28:00
4:35 AM,53.6,51.8,94,29.45,7.0,West,3.5,-,0.02,Rain,Light Rain,280,2013-05-30 10:35:00
4:52 AM,54.0,51.1,90,29.41,8.0,Calm,Calm,-,0.03,Rain,Light Rain,0,2013-05-30 10:52:00
5:29 AM,53.6,51.8,94,29.45,10.0,Calm,Calm,-,0.01,Rain,Light Rain,0,2013-05-30 11:29:00
5:52 AM,53.1,51.1,93,29.41,10.0,WSW,3.5,-,0.01,Rain,Light Rain,250,2013-05-30 11:52:00
6:52 AM,54.0,52.0,93,29.39,10.0,West,4.6,-,0.00,,Overcast,280,2013-05-30 12:52:00
7:52 AM,55.9,53.1,90,29.41,10.0,South,3.5,-,N/A,,Overcast,170,2013-05-30 13:52:00
8:18 AM,57.2,53.6,88,29.43,10.0,South,8.1,-,0.00,Rain,Light Rain,180,2013-05-30 14:18:00
8:52 AM,57.9,53.1,84,29.39,10.0,South,9.2,-,0.00,,Overcast,170,2013-05-30 14:52:00
9:52 AM,62.1,53.1,72,29.35,10.0,Variable,3.5,-,N/A,,Overcast,0,2013-05-30 15:52:00
10:52 AM,63.0,51.1,65,29.35,10.0,Variable,3.5,-,0.00,Rain,Light Rain,0,2013-05-30 16:52:00
11:52 AM,64.0,53.1,67,29.34,10.0,Variable,4.6,-,0.00,,Overcast,0,2013-05-30 17:52:00
12:52 PM,64.9,50.0,58,29.32,10.0,Variable,6.9,19.6,N/A,,Overcast,0,2013-05-30 18:52:00
1:52 PM,62.1,53.1,72,29.32,10.0,ENE,10.4,-,N/A,,Overcast,60,2013-05-30 19:52:00
2:52 PM,64.0,45.0,50,29.31,10.0,West,19.6,23.0,N/A,,Overcast,280,2013-05-30 20:52:00
3:05 PM,64.4,44.6,49,29.36,10.0,WNW,18.4,26.5,N/A,,Overcast,300,2013-05-30 21:05:00
3:52 PM,61.0,46.9,60,29.34,10.0,NW,24.2,32.2,N/A,,Overcast,310,2013-05-30 21:52:00
4:52 PM,57.9,48.9,72,29.36,10.0,NW,12.7,-,0.02,,Overcast,310,2013-05-30 22:52:00
5:52 PM,57.9,46.9,67,29.37,10.0,WNW,26.5,32.2,0.00,,Overcast,300,2013-05-30 23:52:00
6:52 PM,55.9,46.0,69,29.39,10.0,NW,24.2,31.1,0.01,,Overcast,310,2013-05-31 00:52:00
7:52 PM,55.9,43.0,62,29.42,10.0,WNW,23.0,35.7,N/A,,Overcast,300,2013-05-31 01:52:00
8:52 PM,55.9,42.1,60,29.44,10.0,NW,29.9,40.3,N/A,,Overcast,310,2013-05-31 02:52:00
9:52 PM,55.0,42.1,62,29.46,10.0,NW,21.9,35.7,N/A,,Overcast,310,2013-05-31 03:52:00
10:52 PM,54.0,39.9,59,29.47,10.0,NW,25.3,35.7,N/A,,Overcast,310,2013-05-31 04:52:00
11:52 PM,54.0,39.9,59,29.48,10.0,WNW,19.6,29.9,N/A,,Overcast,300,2013-05-31 05:52:00